Voltar ao catálogo

USA 483

AtivoMilitarVLEO
NORAD 62552·PAYLOAD·🇺🇸 United States

Lançado Jan 10, 2025 de Vandenberg Space Force Base

Loading…

Próximas Passagens (próximas 24 horas)

TLE

ObsoletoSource: Mike McCants

Época: Aug 24, 2026, 01:47 UTC

1 62552U 25005W   26236.07470279 0.00000000  00000-0  00000-0 0    00
2 62552  70.0135 231.5285 0003000  66.1817 293.8182 14.96713588    01

Acompanhe USA 483 em tempo real com AllMySat

Download on the App Store